Tacoma Narrows, WA
on Tuesday, November 27, 2012

Tuesday
Previous Day Next Day
Daily Summary
 ActualAverageRecord
Temperature
Mean Temperature °F °F  
Max Temperature 46°F 46°F 57°F (2011)
Min Temperature 33°F 38°F 28°F (2006)
Degree Days
Heating Degree Days 26    
Moisture
Dew Point 36°F   
Average Humidity 90    
Maximum Humidity 100    
Minimum Humidity 76    
Precipitation
Precipitation 0.01 in in in ()
Wind
Wind Speed 0 mph   
Max Wind Speed 5 mph   
Max Gust Speed mph   
Visibility 7 miles   
Events Fog   
Averages and records for this station are not official NWS values.
Key: T is trace of precipitation, MM is missing value
Source: NWS Daily Summary
Seasonal Weather Averages
Time(PST)TemperatureDew PointHumidity Pressure Visibility Wind DirectionWind SpeedGust SpeedPrecipitationEvents Conditions
12:53 AM 37.0°F 33.1°F 86% 30.09 in 10.0 miles Calm Calm - N/A   Overcast
1:53 AM 39.0°F 37.0°F 93% 30.08 in 10.0 miles Calm Calm - N/A   Mostly Cloudy
2:53 AM 37.0°F 35.1°F 93% 30.10 in 8.0 miles Calm Calm - N/A   Clear
3:35 AM 37.4°F 35.6°F 93% 30.07 in 8.0 miles Calm Calm - N/A   Scattered Clouds
3:44 AM 37.4°F 35.6°F 93% 30.07 in 9.0 miles Calm Calm - N/A   Mostly Cloudy
3:53 AM 37.0°F 35.1°F 93% 30.08 in 9.0 miles Calm Calm - N/A   Mostly Cloudy
4:19 AM 37.4°F 35.6°F 93% 30.07 in 10.0 miles Calm Calm - N/A   Partly Cloudy
4:53 AM 35.1°F 34.0°F 96% 30.08 in 7.0 miles Calm Calm - N/A   Clear
5:08 AM 35.6°F 33.8°F 93% 30.07 in 2.0 miles Calm Calm - N/A   Clear
5:18 AM 35.6°F 33.8°F 93% 30.06 in 5.0 miles Calm Calm - N/A   Clear
5:53 AM 35.1°F 33.1°F 92% 30.08 in 9.0 miles Calm Calm - N/A   Clear
6:00 AM 35.6°F 33.8°F 93% 30.06 in 1.8 miles Calm Calm - N/A   Clear
6:28 AM 33.8°F 32.0°F 93% 30.06 in 3.0 miles Calm Calm - 0.01 in   Clear
6:53 AM 34.0°F 33.1°F 96% 30.07 in 1.8 miles Calm Calm - 0.01 in   Clear
7:13 AM 35.6°F 33.8°F 93% 30.06 in 3.0 miles Calm Calm - N/A   Clear
7:20 AM 37.4°F 33.8°F 87% 30.06 in 5.0 miles Calm Calm - N/A   Scattered Clouds
7:33 AM 37.4°F 35.6°F 93% 30.06 in 4.0 miles Calm Calm - N/A   Mostly Cloudy
7:37 AM 35.6°F 35.6°F 100% 30.06 in 1.5 miles Calm Calm - N/A   Mostly Cloudy
7:43 AM 35.6°F 33.8°F 93% 30.06 in 0.2 miles Calm Calm - N/A Fog Fog
7:53 AM 36.0°F 35.1°F 97% 30.07 in 0.2 miles Calm Calm - N/A Fog Fog
8:51 AM 35.6°F 33.8°F 93% 30.06 in 0.5 miles Calm Calm - N/A Fog Fog
8:53 AM 36.0°F 35.1°F 97% 30.08 in 0.8 miles Calm Calm - N/A   Mist
9:05 AM 37.4°F 35.6°F 93% 30.07 in 1.0 miles Calm Calm - N/A   Mist
9:24 AM 37.4°F 37.4°F 100% 30.07 in 3.0 miles Calm Calm - N/A   Scattered Clouds
9:53 AM 39.0°F 37.0°F 93% 30.07 in 3.0 miles Calm Calm - N/A   Scattered Clouds
10:53 AM 41.0°F 37.9°F 89% 30.06 in 10.0 miles Calm Calm - N/A   Scattered Clouds
11:53 AM 44.1°F 37.0°F 76% 30.04 in 10.0 miles Calm Calm - N/A   Partly Cloudy
12:53 PM 45.0°F 39.0°F 80% 30.02 in 10.0 miles Calm Calm - N/A   Clear
1:53 PM 46.4°F 39.2°F 76% 29.99 in 10.0 miles Calm Calm - N/A   Clear
2:53 PM 46.0°F 39.0°F 76% 29.99 in 10.0 miles Calm Calm - N/A   Clear
3:53 PM 45.0°F 39.0°F 80% 29.98 in 10.0 miles Calm Calm - N/A   Clear
4:53 PM 44.1°F 39.0°F 82% 29.98 in 10.0 miles Calm Calm - N/A   Mostly Cloudy
5:53 PM 43.0°F 37.9°F 82% 29.97 in 10.0 miles Calm Calm - N/A   Mostly Cloudy
6:53 PM 42.1°F 37.9°F 85% 29.96 in 10.0 miles North 3.5 mph - N/A   Partly Cloudy
7:53 PM 42.1°F 39.0°F 89% 29.94 in 10.0 miles North 4.6 mph - N/A   Clear
8:53 PM 42.1°F 39.0°F 89% 29.93 in 10.0 miles Calm Calm - N/A   Clear
9:53 PM 39.0°F 36.0°F 89% 29.91 in 10.0 miles Calm Calm - N/A   Clear
10:53 PM 39.0°F 37.0°F 93% 29.90 in 10.0 miles Calm Calm - N/A   Clear
11:53 PM 39.9°F 37.0°F 89% 29.91 in 10.0 miles West 3.5 mph - N/A   Clear
Moon Phase
Nov. 27 Nov. 28 Dec. 06 Dec. 13 Dec. 20
Sunrise:07:32 AM (PST) Moon Rise:04:00 PM (PST)11/27
Sunset:04:23 PM (PST) Moon Set:06:40 AM (PST)11/27

Copyright © 2014 The Weather Underground, Inc.